Weather History for KUVA - March, 2013

Change the Weather History Date:

Sunday, March 31, 2013

  Actual Average (KHDO) Record (KHDO)
Temperature  
Mean Temperature 75 °F -  
Max Temperature 88 °F 73 °F 91 °F (2012)
Min Temperature 62 °F 52 °F 34 °F (2003)
Cooling Degree Days 10    
Growing Degree Days 25 (Base 50)    
Moisture  
Dew Point 63 °F    
Average Humidity 75    
Maximum Humidity 96    
Minimum Humidity 42    
Precipitation  
Precipitation 0.00 in - - ()
Sea Level Pressure  
Sea Level Pressure 29.90 in    
Wind  
Wind Speed 7 mph (East)    
Max Wind Speed 22 mph    
Max Gust Speed 36 mph    
Visibility 10 miles    
Events Thunderstorm    
Averages and records for this station are not official NWS values.
T = Trace of Precipitation, MM = Missing Value Source: NWS Daily Summary

Daily Weather History Graph

Daily Weather History Graph

Search for Another Location

Airport or City:

Trip Planner

Search our weather history database for the weather conditions in past years. The results will help you decide how hot, cold, wet, or windy it might be!

Date:

Astronomy

Mar. 31, 2013 Rise Set
Actual Time 7:29 AM CDT 7:56 PM CDT
Civil Twilight 7:05 AM CDT 8:20 PM CDT
Nautical Twilight 6:37 AM CDT 8:48 PM CDT
Astronomical Twilight 6:09 AM CDT 9:17 PM CDT
Moon No Moon Rise 10:38 AM CDT (3/31)
Length of Visible Light 13h 15m
Length of Day
12h 27m
Waning Gibbous, 77% of the Moon is Illuminated
Mar 31
Waning Gibbous
Apr 2
Last Quarter
Apr 10
New
Apr 18
First Quarter
Apr 25
Full

Hourly Weather History & Observations

Time (CDT) Temp. Heat Index Dew Point Humidity Pressure Visibility Wind Dir Wind Speed Gust Speed Precip Events Conditions
12:15 AM 72.9 °F - 61.0 °F 66% 29.92 in 10.0 mi ESE 9.2 mph - N/A   Clear
12:35 AM 72.9 °F - 62.1 °F 69% 29.92 in 10.0 mi ESE 8.1 mph - N/A   Clear
12:55 AM 72.9 °F - 63.3 °F 72% 29.93 in 10.0 mi ESE 6.9 mph - N/A   Clear
1:15 AM 72.9 °F - 64.8 °F 76% 29.92 in 10.0 mi ESE 8.1 mph - N/A   Clear
1:35 AM 70.3 °F - 63.3 °F 78% 29.92 in 10.0 mi ESE 6.9 mph - N/A   Clear
1:55 AM 70.3 °F - 63.9 °F 80% 29.93 in 10.0 mi ESE 6.9 mph - N/A   Clear
2:15 AM 70.2 °F - 64.4 °F 82% 29.93 in 10.0 mi East 6.9 mph - N/A   Clear
2:35 AM 68.9 °F - 63.7 °F 83% 29.92 in 10.0 mi East 6.9 mph - N/A   Clear
2:55 AM 68.0 °F - 63.1 °F 84% 29.91 in 10.0 mi East 6.9 mph - N/A   Clear
3:15 AM 68.0 °F - 63.5 °F 85% 29.92 in 10.0 mi East 6.9 mph - N/A   Clear
3:35 AM 68.0 °F - 63.9 °F 87% 29.91 in 10.0 mi East 4.6 mph - N/A   Clear
3:55 AM 68.0 °F - 64.4 °F 88% 29.90 in 10.0 mi ENE 5.8 mph - N/A   Clear
4:15 AM 68.0 °F - 64.8 °F 89% 29.90 in 10.0 mi East 5.8 mph - N/A   Clear
4:35 AM 68.0 °F - 65.3 °F 91% 29.90 in 7.0 mi ENE 4.6 mph - N/A   Clear
4:55 AM 65.3 °F - 63.3 °F 93% 29.91 in 10.0 mi ENE 4.6 mph - N/A   Clear
5:15 AM 65.3 °F - 63.5 °F 94% 29.90 in 10.0 mi ENE 5.8 mph - N/A   Clear
5:35 AM 65.3 °F - 63.5 °F 94% 29.90 in 10.0 mi ENE 6.9 mph - N/A   Clear
5:55 AM 65.3 °F - 63.5 °F 94% 29.91 in 10.0 mi ENE 5.8 mph - N/A   Clear
6:15 AM 65.3 °F - 63.7 °F 94% 29.91 in 10.0 mi ENE 5.8 mph - N/A   Clear
6:35 AM 64.0 °F - 62.6 °F 95% 29.91 in 7.0 mi ENE 6.9 mph - N/A   Clear
6:55 AM 64.0 °F - 62.6 °F 95% 29.91 in 7.0 mi ENE 6.9 mph - N/A   Clear
7:15 AM 64.6 °F - 63.1 °F 95% 29.92 in 7.0 mi ENE 6.9 mph - N/A   Clear
7:35 AM 63.7 °F - 62.2 °F 95% 29.92 in 7.0 mi ENE 5.8 mph - N/A   Clear
7:55 AM 62.8 °F - 61.7 °F 96% 29.93 in 7.0 mi ENE 5.8 mph - N/A   Clear
8:15 AM 64.6 °F - 63.3 °F 96% 29.93 in 5.0 mi East 4.6 mph - N/A   Clear
8:35 AM 65.3 °F - 63.9 °F 95% 29.93 in 7.0 mi East 5.8 mph - N/A   Scattered Clouds
8:55 AM 66.6 °F - 64.9 °F 95% 29.93 in 7.0 mi East 6.9 mph - N/A   Clear
9:15 AM 68.0 °F - 65.5 °F 92% 29.94 in 7.0 mi East 6.9 mph - N/A   Clear
9:55 AM 68.0 °F - 64.4 °F 88% 29.94 in 10.0 mi East 6.9 mph - N/A   Scattered Clouds
10:15 AM 68.0 °F - 63.7 °F 86% 29.94 in 10.0 mi East 8.1 mph - N/A   Overcast
10:35 AM 68.2 °F - 63.7 °F 85% 29.94 in 10.0 mi SE 6.9 mph - N/A   Scattered Clouds
10:55 AM 70.2 °F - 65.1 °F 84% 29.94 in 10.0 mi ESE 6.9 mph - N/A   Scattered Clouds
11:15 AM 70.3 °F - 64.6 °F 82% 29.93 in 10.0 mi SE 8.1 mph - N/A   Scattered Clouds
11:35 AM 72.9 °F - 66.0 °F 79% 29.93 in 10.0 mi SSE 6.9 mph - N/A   Clear
11:55 AM 72.9 °F - 64.8 °F 76% 29.93 in 10.0 mi SE 3.5 mph - N/A   Clear
12:15 PM 73.4 °F - 64.6 °F 74% 29.93 in 10.0 mi ESE 4.6 mph - N/A   Clear
12:35 PM 75.4 °F - 64.4 °F 69% 29.92 in 10.0 mi ESE 5.8 mph - N/A   Clear
12:55 PM 77.9 °F - 65.1 °F 65% 29.91 in 10.0 mi SE 6.9 mph - N/A   Clear
1:15 PM 78.1 °F - 64.2 °F 62% 29.91 in 10.0 mi East 5.8 mph - N/A   Clear
1:35 PM 79.0 °F - 64.2 °F 60% 29.91 in 10.0 mi ESE 4.6 mph - N/A   Clear
1:55 PM 80.2 °F 82.0 °F 64.6 °F 59% 29.90 in 10.0 mi East 3.5 mph - N/A   Clear
2:15 PM 80.8 °F 82.2 °F 63.7 °F 56% 29.88 in 10.0 mi SSE 3.5 mph - N/A   Clear
2:35 PM 81.9 °F 83.2 °F 63.7 °F 54% 29.87 in 10.0 mi SE 5.8 mph - N/A   Clear
2:55 PM 85.3 °F 87.1 °F 65.1 °F 51% 29.86 in 10.0 mi SSW 4.6 mph - N/A   Scattered Clouds
3:15 PM 84.9 °F 86.3 °F 64.2 °F 50% 29.85 in 10.0 mi Calm Calm - N/A   Scattered Clouds
3:35 PM 88.0 °F 89.6 °F 64.8 °F 46% 29.84 in 10.0 mi ESE 4.6 mph - N/A   Clear
3:55 PM 88.0 °F 89.6 °F 64.6 °F 46% 29.84 in 10.0 mi East 10.4 mph - N/A   Scattered Clouds
4:15 PM 88.0 °F 89.3 °F 64.0 °F 45% 29.84 in 10.0 mi East 5.8 mph 17.3 mph N/A   Scattered Clouds
4:35 PM 87.1 °F 88.3 °F 64.0 °F 46% 29.84 in 10.0 mi ENE 9.2 mph - N/A   Scattered Clouds
4:55 PM 88.0 °F 88.4 °F 62.1 °F 42% 29.83 in 10.0 mi East 10.4 mph 16.1 mph N/A   Scattered Clouds
5:15 PM 88.0 °F 88.7 °F 63.1 °F 43% 29.84 in 10.0 mi NE 16.1 mph 19.6 mph N/A   Scattered Clouds
5:35 PM 76.1 °F - 59.2 °F 56% 29.84 in 7.0 mi NNE 17.3 mph 35.7 mph N/A   Overcast
5:55 PM 72.9 °F - 63.0 °F 71% 29.86 in 10.0 mi ENE 17.3 mph 28.8 mph N/A Thunderstorm Scattered Clouds
6:15 PM 72.9 °F - 64.4 °F 75% 29.86 in 10.0 mi ENE 21.9 mph 27.6 mph N/A   Clear
6:35 PM 72.7 °F - 64.2 °F 75% 29.87 in 10.0 mi ENE 11.5 mph 20.7 mph N/A Thunderstorm Unknown
6:55 PM 72.9 °F - 62.8 °F 71% 29.85 in 10.0 mi East 17.3 mph 20.7 mph N/A   Light Drizzle
7:15 PM 72.9 °F - 61.9 °F 68% 29.86 in 10.0 mi ENE 9.2 mph - N/A Thunderstorm Thunderstorm
7:35 PM 70.9 °F - 61.0 °F 71% 29.86 in 10.0 mi ENE 11.5 mph - N/A   Clear
7:55 PM 68.5 °F - 58.8 °F 71% 29.88 in 10.0 mi NE 8.1 mph - N/A   Clear
8:15 PM 68.0 °F - 58.8 °F 72% 29.88 in 10.0 mi NNE 6.9 mph - N/A   Clear
8:35 PM 68.0 °F - 59.5 °F 74% 29.88 in 10.0 mi NE 6.9 mph - N/A   Clear
8:55 PM 68.0 °F - 59.0 °F 73% 29.90 in 10.0 mi NNE 3.5 mph - N/A   Clear
9:15 PM 68.0 °F - 58.5 °F 71% 29.90 in 10.0 mi NE 5.8 mph - N/A   Clear
9:35 PM 68.0 °F - 57.6 °F 69% 29.91 in 10.0 mi NNE 4.6 mph - N/A   Clear
9:55 PM 68.0 °F - 57.7 °F 70% 29.91 in 10.0 mi NE 4.6 mph - N/A   Clear
10:15 PM 68.0 °F - 57.4 °F 69% 29.91 in 10.0 mi NE 5.8 mph - N/A   Clear
10:35 PM 68.0 °F - 58.1 °F 71% 29.92 in 10.0 mi NNE 4.6 mph - N/A   Clear
10:55 PM 68.0 °F - 57.2 °F 68% 29.93 in 10.0 mi ENE 4.6 mph - N/A   Clear
11:15 PM 68.0 °F - 57.7 °F 70% 29.93 in 10.0 mi NE 4.6 mph - N/A   Clear
11:35 PM 65.3 °F - 56.5 °F 73% 29.95 in 10.0 mi NE 4.6 mph - N/A   Clear
11:55 PM 65.3 °F - 56.5 °F 73% 29.96 in 10.0 mi NE 4.6 mph - N/A   Clear